RH
20 35 36 35 40 39 12 7 6 6 19 21 30 21 18 26 14 10 9 8 10 12 12 10 10 6 2 2 2 2 2 2 3 3 3 3 3 3 3 3 6 11 12
9 15 25 26 34 35 45 15 7 6 9 18 28 35 23 38 10 10 10 10 11 12 10 10 11 9 4 2 2 3 3 3 4 6 7 9 8 6 5 4 5 9 12
5 6 9 15 22 28 33 45 22 7 6 10 19 33 28 35 20 8 9 12 13 12 10 11 12 10 6 2 2 3 3 4 6 8 10 12 14 12 6 6 8 10 13
4 4 4 6 8 12 23 31 47 31 9 7 12 21 30 18 30 13 10 8 13 13 12 11 11 10 7 3 2 3 4 5 6 8 11 15 16 15 9 10 10 12 14
6 5 4 4 4 4 6 24 37 47 57 29 12 19 17 18 16 12 10 11 8 9 11 11 11 10 7 3 2 3 4 4 6 8 11 15 16 16 13 15 13 13 16
8 8 7 6 6 5 4 4 16 33 43 65 60 14 23 24 18 17 13 10 11 9 5 8 9 8 7 4 3 3 4 5 6 8 10 16 18 16 16 16 14 15 18
9 9 8 8 8 7 6 4 5 13 29 39 58 55 34 27 37 22 18 14 10 11 9 4 4 5 8 5 3 3 3 4 6 7 10 15 18 19 17 18 18 18 20
10 9 9 8 7 8 8 7 6 6 10 20 34 57 59 60 37 28 24 19 16 11 11 9 5 5 7 6 3 3 3 3 5 6 9 16 19 20 19 21 21 23 23
11 11 10 10 10 10 9 9 9 8 8 13 17 30 58 66 64 59 29 22 21 18 11 10 9 5 5 5 5 3 3 3 4 6 8 16 20 21 22 24 26 25 23
11 10 11 11 11 11 11 11 10 10 8 8 14 18 20 43 66 62 64 41 25 21 18 11 10 9 5 5 5 4 3 3 4 5 8 15 20 22 24 24 27 27 22
14 14 14 13 13 13 12 11 11 11 10 9 7 8 18 17 23 57 61 62 55 24 21 19 12 10 9 7 7 6 4 4 4 4 7 13 19 24 27 27 28 28 21
12 12 12 12 11 11 11 11 11 11 11 10 9 8 6 8 12 18 38 58 60 56 31 20 20 14 10 9 9 9 6 4 4 4 6 10 16 25 29 29 28 27 19
18 16 14 13 12 12 11 11 10 9 9 10 10 9 8 7 6 6 11 25 53 53 49 41 21 23 17 10 9 10 10 5 4 4 5 8 14 23 29 29 28 27 19
21 19 18 17 15 16 17 14 11 11 10 9 9 9 9 12 13 13 10 9 15 46 55 52 51 24 30 15 11 10 11 8 4 4 4 6 11 19 29 29 28 28 19
28 23 20 20 19 18 17 17 18 14 12 11 10 9 9 9 9 13 20 17 16 16 33 59 58 55 34 34 12 11 11 10 6 4 4 5 9 15 26 28 28 29 20
11 14 27 26 21 20 20 19 18 18 16 14 13 12 12 11 10 9 8 18 22 21 26 24 51 58 57 42 32 12 12 9 6 4 4 5 8 11 20 26 27 27 20
3 6 8 15 30 24 21 21 20 19 18 18 17 16 16 15 14 13 11 9 8 12 20 15 14 35 53 62 45 31 12 12 7 4 4 4 6 10 14 23 25 27 22
1 2 2 15 19 28 26 23 23 22 21 20 19 18 17 16 14 14 13 12 11 10 9 16 17 26 46 60 71 45 31 12 10 6 5 5 5 9 11 19 22 26 24
2 2 3 14 25 25 28 26 24 22 20 18 16 14 12 11 10 10 10 11 11 11 10 10 9 10 48 49 58 66 62 31 12 9 6 5 5 7 11 14 20 24 27
2 2 4 21 33 32 32 27 22 19 15 11 8 5 4 3 3 3 3 3 4 6 9 11 11 20 25 44 56 78 82 63 32 11 8 7 5 5 10 12 16 20 27
2 4 8 19 40 40 37 26 18 13 7 5 5 4 4 4 4 4 4 3 3 3 3 4 7 11 19 41 39 88 69 97 81 38 10 8 7 5 8 11 13 17 24
6 10 11 25 45 46 45 27 13 10 7 6 5 5 5 5 4 4 4 4 4 4 4 4 4 4 6 11 35 40 87 70 81 71 31 10 8 6 6 11 11 14 18
8 16 24 38 53 56 53 34 17 10 8 7 8 8 7 7 6 5 6 6 5 4 5 5 5 4 4 5 13 28 38 43 96 100 77 22 10 9 6 8 12 12 15
8 35 47 44 64 63 59 40 23 16 12 11 9 9 8 7 7 7 7 6 6 6 6 6 5 5 6 5 8 18 30 34 68 60 97 66 14 10 9 6 11 13 13
13 38 48 68 74 61 59 46 26 18 16 13 12 10 8 7 7 8 7 7 6 10 8 8 7 7 5 7 12 19 23 30 93 85 97 95 63 11 12 9 7 11 13
31 47 74 90 77 62 72 40 26 21 18 15 12 10 9 7 7 8 8 8 7 9 12 11 11 10 12 10 11 18 18 13 61 79 97 96 96 41 11 12 9 8 11
Wind_Speed
18 16 17 16 15 15 15 16 17 18 16 15 13 11 9 9 15 16 17 18 18 17 16 15 12 12 12 12 14 14 14 13 12 12 12 11 10 9 8 9 10 9 7
19 20 19 18 19 17 17 16 17 18 18 17 15 14 13 10 12 15 17 17 19 18 17 17 14 13 15 14 15 15 15 14 13 12 11 10 8 7 7 8 9 9 7
18 19 20 19 19 20 19 18 18 18 19 20 19 16 14 13 12 13 16 17 19 20 19 18 17 15 18 17 17 17 16 15 15 13 12 10 8 7 6 9 8 8 5
18 19 19 18 18 19 21 22 21 20 21 22 21 18 17 17 15 14 14 16 20 20 20 20 19 18 19 19 18 18 18 17 16 14 13 11 9 8 7 8 8 8 7
18 18 19 19 19 20 20 22 24 23 23 23 23 22 21 19 18 17 15 15 16 20 22 22 22 21 22 22 20 20 20 19 17 16 15 12 10 11 12 11 10 9 8
21 21 22 22 21 21 21 22 23 25 26 26 24 24 24 23 21 21 19 17 15 16 18 21 23 24 25 24 23 21 21 20 19 18 17 16 13 14 14 13 13 11 9
25 26 25 25 25 25 24 24 24 25 26 27 27 26 25 26 25 23 23 21 18 16 17 19 21 24 26 25 24 23 22 21 21 21 20 18 13 13 15 14 13 12 11
28 28 28 29 30 30 28 27 27 26 28 29 29 30 28 27 27 27 25 24 23 20 18 19 20 23 26 26 25 24 23 22 23 23 23 19 16 15 15 15 15 14 13
29 29 30 30 31 31 32 31 30 30 29 29 30 31 31 31 29 28 28 27 26 25 22 21 23 24 27 28 28 26 25 24 24 24 24 21 19 18 17 18 17 16 14
29 30 30 31 31 32 32 33 32 31 31 31 31 31 32 32 32 32 31 30 28 28 27 25 24 26 28 29 30 29 28 27 25 26 25 24 21 20 19 20 20 18 16
25 26 27 29 31 32 33 33 33 34 33 33 33 32 33 33 34 34 33 32 31 32 31 30 28 27 30 31 32 32 30 30 28 27 27 27 25 23 21 21 21 20 19
26 26 27 27 28 30 32 33 33 34 35 34 34 34 34 35 35 37 37 36 37 35 34 32 31 30 29 33 35 34 34 33 31 30 30 29 28 25 23 22 22 22 21
28 30 30 30 31 31 32 33 34 34 34 35 36 36 36 36 37 38 39 39 39 39 39 36 34 32 33 32 36 37 36 36 34 33 32 32 31 29 26 24 23 23 24
29 32 34 36 37 37 36 36 37 37 36 36 36 36 37 38 38 39 39 41 41 41 41 40 37 36 34 34 35 38 38 38 38 36 35 35 33 32 29 27 26 25 26
31 34 36 37 39 41 42 42 41 41 40 39 38 37 37 37 38 40 41 41 42 43 45 43 41 39 38 38 37 38 40 41 40 39 38 37 37 35 33 29 28 28 28
31 33 36 40 41 42 42 43 43 44 44 43 42 41 40 40 40 40 41 43 44 43 44 46 45 43 42 41 41 40 41 42 42 41 41 39 41 39 37 33 32 30 31
32 33 37 40 43 44 44 44 44 45 46 45 45 45 44 44 44 44 44 44 44 45 46 46 45 49 46 45 44 43 43 44 44 43 43 43 43 43 40 37 34 32 33
36 41 43 43 44 44 45 45 45 45 46 46 46 47 47 47 47 47 47 48 48 49 48 48 48 46 50 49 49 46 46 46 47 46 46 45 45 46 43 41 38 36 35
36 40 44 47 45 45 45 45 45 46 46 46 46 48 49 50 51 51 51 52 53 52 52 52 51 50 49 52 53 55 52 50 50 49 49 49 48 48 48 44 42 39 38
37 40 43 46 46 47 45 45 45 45 45 46 46 46 46 47 46 46 47 49 52 54 54 56 56 55 52 51 55 60 54 56 55 53 52 52 51 51 50 49 45 43 41
41 41 42 46 47 47 48 44 45 44 43 43 42 43 43 44 45 45 45 46 45 46 48 52 56 59 59 57 58 53 67 52 62 54 55 55 55 54 53 52 48 47 44
44 43 45 46 49 48 47 47 44 46 46 45 45 45 46 46 47 48 49 50 50 51 52 53 53 55 60 61 62 71 61 62 59 59 58 58 57 56 55 54 52 50 47
46 46 45 48 48 49 48 46 46 45 46 47 47 47 46 47 48 49 51 53 54 56 58 59 62 61 62 61 66 65 70 72 57 53 62 59 60 58 57 56 55 53 50
48 46 45 49 48 48 47 46 45 46 46 47 48 47 47 47 47 49 51 52 54 58 59 59 62 66 72 69 68 66 74 73 68 64 60 60 62 61 58 58 57 55 53
47 44 46 48 47 46 45 44 43 45 45 47 47 48 47 48 47 51 52 55 55 56 62 60 59 60 65 72 74 75 74 68 66 65 71 70 68 66 61 58 58 57 56
42 43 46 47 48 46 44 42 41 41 43 43 44 45 47 48 48 50 52 56 58 61 64 62 62 58 58 59 66 80 78 76 77 76 66 63 68 71 67 63 62 61 60
Wind_Direction
231 229 227 228 224 218 214 212 217 217 218 215 209 204 209 207 208 205 201 198 197 198 195 191 186 189 187 178 171 164 157 155 152 150 145 145 144 140 138 137 148 138 122
234 233 232 230 225 226 223 218 218 218 220 225 220 210 208 206 206 210 213 208 203 201 200 199 199 197 193 187 181 174 168 164 163 159 156 153 152 153 154 149 155 157 140
233 237 235 233 234 228 230 228 224 219 220 225 228 224 218 211 211 212 213 214 212 206 208 207 210 210 200 194 187 182 179 176 175 171 169 167 173 172 168 160 171 167 156
240 239 240 237 238 241 234 232 229 228 224 224 228 227 226 222 217 216 216 215 216 215 213 218 218 217 208 200 194 190 188 187 183 183 180 185 195 190 183 182 183 182 184
246 244 241 242 240 240 239 236 233 230 231 230 229 227 229 228 228 224 222 221 218 222 221 223 224 222 210 204 198 196 194 193 191 192 194 198 207 200 194 201 196 196 201
245 245 244 244 244 239 238 239 238 235 233 233 234 233 230 231 232 232 226 224 225 222 220 222 222 219 214 207 202 200 201 199 198 197 201 207 208 209 205 203 199 204 212
247 247 249 250 249 249 244 243 240 237 235 236 236 236 236 234 234 234 235 230 226 226 224 222 219 216 213 212 208 204 205 204 204 204 208 213 214 219 216 212 213 215 219
251 253 254 253 252 249 247 243 244 243 239 235 236 236 236 236 237 237 235 234 232 226 226 226 223 217 215 216 215 211 210 210 209 211 212 214 217 221 222 226 224 224 228
253 252 252 253 253 251 250 247 243 244 243 243 239 237 238 238 238 238 239 237 234 233 228 227 226 223 221 219 219 218 215 214 214 214 216 216 219 220 224 230 230 230 230
257 255 254 252 252 253 250 249 247 244 245 243 242 241 241 240 239 239 239 239 237 235 232 231 228 227 225 222 223 222 220 219 218 216 220 218 222 226 231 234 234 234 229
260 258 255 251 250 251 252 250 249 247 245 245 243 242 241 242 242 242 240 241 241 239 234 231 232 229 228 227 227 226 224 223 222 221 218 222 224 228 233 238 239 236 231
264 260 256 253 249 248 249 251 250 247 247 245 245 243 242 241 241 242 242 240 239 243 240 234 233 234 231 230 229 228 227 225 226 223 221 221 226 230 235 238 241 240 232
267 265 263 260 256 253 251 250 251 248 246 245 243 242 243 242 241 241 242 242 242 240 242 238 234 232 237 235 233 231 229 228 227 229 224 223 226 230 236 239 240 242 234
271 268 268 266 264 261 258 255 252 251 248 245 244 243 241 242 241 241 242 243 242 242 243 241 237 232 233 235 235 234 233 230 228 228 230 226 226 231 235 240 242 240 238
278 275 270 267 265 263 261 258 254 252 250 247 245 244 244 243 242 242 241 241 243 243 243 243 240 236 232 235 235 234 234 232 231 230 230 230 227 230 235 239 243 241 239
283 281 278 272 267 263 260 255 253 252 249 248 248 247 246 246 245 243 243 243 242 243 244 244 243 239 237 233 234 235 234 233 232 231 232 229 230 228 234 236 242 241 239
290 282 278 273 270 263 260 257 252 249 249 249 248 247 248 248 248 247 245 245 244 243 243 244 244 240 238 237 235 235 236 235 234 233 232 232 230 230 231 237 241 241 241
298 295 287 275 268 266 260 255 253 250 249 249 249 250 250 249 249 249 248 247 245 244 245 244 244 242 240 239 237 236 236 237 235 235 235 232 231 232 230 235 239 241 241
298 299 289 277 270 266 263 257 252 250 248 248 248 250 251 251 252 251 250 249 248 246 245 245 245 245 239 240 240 236 236 235 236 235 236 235 231 232 232 232 237 240 242
288 291 286 276 272 267 260 256 252 249 248 247 246 246 247 248 249 250 251 250 249 248 247 245 244 244 242 238 244 239 236 241 236 235 235 236 234 232 232 233 233 239 241
281 284 283 277 273 267 262 255 253 251 247 243 241 241 244 247 249 249 249 249 249 248 248 248 246 245 242 241 240 240 235 239 236 236 235 235 236 234 233 234 232 236 240
278 279 279 273 272 267 260 257 252 250 247 245 245 246 246 248 250 251 251 252 252 253 252 251 251 248 246 243 240 242 246 247 244 237 237 237 236 236 235 234 236 235 238
276 275 274 272 271 267 261 256 252 248 246 245 244 247 250 251 251 252 252 252 251 251 253 253 252 250 249 247 243 243 242 241 251 233 236 237 237 236 236 235 236 238 238
273 271 271 271 269 265 261 257 253 250 249 248 247 248 251 252 253 253 255 254 254 253 251 253 252 251 248 247 246 242 240 242 247 249 237 231 239 236 236 236 236 238 239
271 268 267 267 265 261 261 259 254 251 250 249 250 251 253 254 255 257 256 257 257 259 254 254 249 250 251 248 244 242 242 240 236 243 239 239 232 235 234 235 236 237 239
267 264 263 261 258 259 257 258 255 254 254 253 254 255 256 257 257 259 260 259 258 261 253 250 250 248 250 248 247 241 244 242 241 241 241 243 237 233 232 231 232 234 236